Home   Weather   Shanghai   Past weeks

Flag for China Past Weather in Shanghai, Shanghai Municipality, China — Yesterday and Last 2 Weeks

Now
63 °F

Clear.


Feels Like: 63 °F
Forecast: 61 / 77 °F
Wind: 6 mph from Southeast

Location: Shanghai Hongqiao Airport

Current Time: Apr 25, 2017 at 3:30:33 am

Latest Report: Apr 25, 2017 at 3:00 am


Visibility: 10 mi

Pressure: 29.95 "Hg

Humidity: 73%

Dew Point: 54 °F

Location of ShanghaiLocation

Past Weather in Shanghai — Graph

°F

Shanghai Temperature Yesterday

Maximum temperature yesterday: 79 °F (at 2:00 pm)
Minimum temperature yesterday: 57 °F (at 2:30 am)
Average temperature yesterday: 67 °F

High & Low Weather Summary for the Past Weeks

 TemperatureHumidityPressure
High90 °F (Apr 15, 1:00 pm)100% (Apr 10, 5:30 am)30.18 "Hg (Apr 10, 5:30 am)
Low45 °F (Apr 13, 4:30 am)14% (Apr 13, 3:00 pm)29.62 "Hg (Apr 17, 4:30 am)
Average65 °F64%29.89 "Hg
* Reported Apr 10 2:00 am — Apr 25 2:00 am, Shanghai, Weather by CustomWeather, © 2017

Note: Actual official high and low records may vary slightly from our data, if they occured in-between our weather recording intervals... More about our weather records

Advertising

Shanghai Weather History for the Previous 24 Hours

Scroll right to see more
 ConditionsComfort  
Time TempWeatherWind HumidityBarometerVisibility
2:00 am
Tue, Apr 25
63 °FClear.3 mph73%29.95 "Hg10 mi
1:30 am63 °FClear.6 mph73%29.95 "Hg10 mi
1:00 am63 °FClear.6 mph73%29.95 "Hg10 mi
12:30 am63 °FClear.6 mph73%29.98 "Hg10 mi
12:00 am63 °FPassing clouds.6 mph73%29.98 "HgN/A
11:30 pm
Mon, Apr 24
64 °FClear.6 mph68%29.98 "Hg10 mi
11:00 pm64 °FPassing clouds.6 mph68%29.98 "HgN/A
10:30 pm64 °FClear.8 mph68%29.98 "Hg10 mi
10:00 pm66 °FClear.6 mph64%29.98 "Hg10 mi
9:30 pm64 °FClear.6 mph68%29.98 "Hg10 mi
9:00 pm66 °FClear.8 mph64%29.98 "Hg10 mi
8:30 pm66 °FClear.8 mph64%29.98 "Hg10 mi
8:00 pm68 °FClear.8 mph60%29.98 "Hg10 mi
7:30 pm68 °FPassing clouds.6 mph60%29.98 "HgN/A
7:00 pm68 °FClear.8 mph60%29.95 "Hg10 mi
6:30 pm70 °FPassing clouds.10 mph57%29.95 "HgN/A
6:00 pm72 °FSunny.8 mph53%29.95 "Hg10 mi
5:30 pm73 °FSunny.8 mph44%29.95 "Hg10 mi
5:00 pm73 °FPassing clouds.8 mph44%29.92 "HgN/A
4:30 pm75 °FSunny.10 mph41%29.92 "Hg10 mi
4:00 pm75 °FPassing clouds.10 mph44%29.92 "HgN/A
3:30 pm75 °FPassing clouds.13 mph44%29.92 "HgN/A
3:00 pm77 °FPassing clouds.10 mph42%29.92 "HgN/A
2:30 pm77 °FPassing clouds.13 mph42%29.92 "HgN/A
2:00 pm79 °FPassing clouds.10 mph42%29.95 "HgN/A
1:30 pm77 °FPassing clouds.10 mph39%29.95 "HgN/A
1:00 pm77 °FPassing clouds.10 mph42%29.98 "HgN/A
12:30 pm75 °FSunny.10 mph44%29.98 "Hg10 mi
12:00 pm75 °FPassing clouds.13 mph44%29.98 "HgN/A
11:30 am75 °FPassing clouds.13 mph44%29.98 "HgN/A
11:00 am73 °FPassing clouds.13 mph47%30.01 "HgN/A
10:30 am72 °FPassing clouds.10 mph50%30.01 "HgN/A
10:00 am73 °FPassing clouds.8 mph53%30.04 "HgN/A
9:30 am70 °FPassing clouds.10 mph53%30.04 "HgN/A
9:00 am68 °FPassing clouds.13 mph56%30.04 "HgN/A
8:30 am66 °FSunny.13 mph60%30.04 "Hg10 mi
8:00 am64 °FSunny.15 mph64%30.01 "Hg10 mi
7:30 am63 °FSunny.13 mph73%30.01 "Hg10 mi
7:00 am61 °FSunny.15 mph72%30.01 "Hg10 mi
6:30 am59 °FSunny.10 mph77%30.01 "Hg10 mi
6:00 am59 °FSunny.10 mph77%30.01 "Hg10 mi
5:30 am57 °FSunny.8 mph82%30.01 "Hg10 mi
5:00 am57 °FClear.8 mph82%29.98 "Hg10 mi
4:30 am57 °FClear.8 mph77%29.98 "Hg10 mi
4:00 am57 °FClear.8 mph77%29.98 "Hg10 mi
3:30 am57 °FClear.8 mph77%29.98 "Hg10 mi
3:00 am57 °FClear.6 mph77%30.01 "Hg10 mi
Weather by CustomWeather, © 2017

See weather overviewHow to use our weather pages